Location: Vancouver
(49.2500°N, 123.1330°W)
Time: 09:08:37
(UTC-07:00)

ISS - Visible Passes

Search period start: 21 September 2014 00:00
Search period end: 01 October 2014 00:00
Orbit: 413 x 417 km, 51.6° (Epoch: 21 September)

Date Brightness Start Highest point End Pass type
(mag) Time Alt. Az. Time Alt. Az. Time Alt. Az.
21 Sep -1.2 04:14:10 27° ENE 04:14:10 27° ENE 04:15:48 10° ENE visible
21 Sep -2.8 05:47:02 18° WNW 05:49:19 54° N 05:52:36 10° ENE visible
22 Sep -3.0 05:00:06 56° NNW 05:00:21 58° N 05:03:40 10° ENE visible
23 Sep -1.0 04:13:09 25° ENE 04:13:09 25° ENE 04:14:42 10° ENE visible
23 Sep -2.8 05:46:01 18° WNW 05:48:19 58° N 05:51:37 10° E visible
24 Sep -2.9 04:59:04 53° NNW 04:59:17 54° N 05:02:34 10° E visible
25 Sep -0.8 04:12:07 22° ENE 04:12:07 22° ENE 04:13:29 10° ENE visible
25 Sep -3.2 05:45:00 21° WNW 05:47:07 79° NNE 05:50:27 10° ESE visible
26 Sep -3.0 04:58:05 65° NNE 04:58:05 65° NNE 05:01:21 10° E visible
26 Sep -2.7 06:31:30 10° WNW 06:34:40 41° SSW 06:37:49 10° SE visible
27 Sep -0.5 04:11:13 18° E 04:11:13 18° E 04:12:11 10° E visible
27 Sep -3.2 05:44:05 28° W 05:45:39 61° SSW 05:48:56 10° SE visible
28 Sep -2.6 04:57:18 51° ESE 04:57:18 51° ESE 04:59:54 10° ESE visible
28 Sep -1.7 06:30:23 10° W 06:32:55 20° SW 06:35:26 10° S visible
29 Sep -0.1 04:10:37 11° ESE 04:10:37 11° ESE 04:10:44 10° ESE visible
29 Sep -2.4 05:43:30 29° SW 05:43:55 30° SW 05:46:52 10° SSE visible
30 Sep -1.1 04:56:56 19° SE 04:56:56 19° SE 04:58:01 10° SE visible
